This demonstration page uses our WeatherBlox Daily Observations layout. Learn more.

Left ArrowRight Arrow

Hourly Observations for March 8, 2019

Temp ( °F °C ) Dew Point ( °F °C ) Humidity (%) Winds ( mph kmh ) Pressure ( in mb ) Visibility ( mi km ) Precip ( " mm )
12:51 am 00:51 Clear 55 12.8 28 -2.2 35 35 N N/A 29.82 1010 10 16 N/A
1:51 am 01:51 Clear 51 10.6 28 -2.2 41 41 E 5 7 29.82 1010 10 16 N/A
2:51 am 02:51 Clear 48 8.9 28 -2.2 46 46 N N/A 29.80 1009 10 16 N/A
3:51 am 03:51 Clear 48 8.9 28 -2.2 46 46 NNW 3 6 29.78 1008 10 16 N/A
4:51 am 04:51 Clear 49 9.4 29 -1.7 46 46 N 3 6 29.76 1008 10 16 N/A
5:51 am 05:51 Clear 47 8.3 30 -1.1 52 52 N 5 7 29.78 1009 10 16 N/A
6:51 am 06:51 Sunny 46 7.8 30 -1.1 54 54 WNW 3 6 29.81 1010 10 16 N/A
7:51 am 07:51 Sunny 50 10 32 undefined 50 50 N N/A 29.82 1010 10 16 N/A
8:51 am 08:51 Sunny 55 12.8 30 -1.1 38 38 N N/A 29.81 1010 10 16 N/A
9:51 am 09:51 Sunny 60 15.6 28 -2.2 30 30 N N/A 29.80 1009 10 16 N/A
10:51 am 10:51 Sunny 61 16.1 30 -1.1 31 31 WNW 10 17 29.77 1008 10 16 N/A
11:51 am 11:51 Sunny 65 18.3 27 -2.8 24 24 W 10 17 29.75 1007 10 16 N/A
12:51 pm 12:51 Sunny 67 19.4 19 -7.2 16 16 undefined N/A 29.71 1006 10 16 N/A
1:51 pm 13:51 Sunny 69 20.6 25 -3.9 19 19 NW 8 13 29.68 1005 10 16 N/A
2:51 pm 14:51 Sunny 69 20.6 33 0.6 26 26 W 21 33 29.66 1004 10 16 N/A
3:51 pm 15:51 Cloudy 61 16.1 40 4.4 46 46 NW 25 41 29.69 1005 10 16 N/A
4:51 pm 16:51 Cloudy 61 16.1 38 3.3 43 43 WNW 29 46 29.71 1006 10 16 N/A
5:51 pm 17:51 Cloudy with Light Rain 51 10.6 39 3.9 64 64 WNW 22 35 29.78 1009 10 16 N/A
6:51 pm 18:51 Clear 49 9.4 34 1.1 56 56 NW 15 24 29.81 1009 10 16 N/A
7:51 pm 19:51 Mostly Clear 49 9.4 32 undefined 52 52 NNW 13 20 29.83 1010 10 16 N/A
8:51 pm 20:51 Mostly Cloudy 48 8.9 29 -1.7 48 48 NW 8 13 29.86 1011 10 16 N/A
9:51 pm 21:51 Clear 47 8.3 26 -3.3 44 44 WNW 15 24 29.86 1011 10 16 N/A
10:51 pm 22:51 Clear 45 7.2 24 -4.4 44 44 NW 8 13 29.89 1012 10 16 N/A
11:51 pm 23:51 Clear 42 5.6 24 -4.4 49 49 WNW 3 6 29.90 1012 10 16 N/A

Powered by AerisWeather